Time,TemperatureF,DewpointF,PressureIn,WindDirection,WindDirectionDegrees,WindSpeedMPH,WindSpeedGustMPH,Humidity,HourlyPrecipIn,Conditions,Clouds,dailyrainin,SoftwareType,DateUTC
2013-07-21 00:01:00,75.6,72.1,30.08,ENE,74,0.0,0.0,89,0.00,,,0.00,WeatherCatV1.15B25,2013-07-21 04:01:00,
2013-07-21 00:06:00,75.6,72.1,30.08,ENE,74,1.0,1.0,89,0.00,,,0.00,WeatherCatV1.15B25,2013-07-21 04:06:00,
2013-07-21 00:11:00,75.5,72.0,30.08,ESE,104,0.0,2.0,89,0.00,,,0.00,WeatherCatV1.15B25,2013-07-21 04:11:00,
2013-07-21 00:16:00,75.5,72.0,30.08,ESE,104,0.0,0.0,89,0.00,,,0.00,WeatherCatV1.15B25,2013-07-21 04:16:00,
2013-07-21 00:21:00,75.5,72.0,30.08,ESE,104,0.0,1.0,89,0.00,,,0.00,WeatherCatV1.15B25,2013-07-21 04:21:00,
2013-07-21 00:26:00,75.4,71.9,30.08,East,100,0.0,2.0,89,0.00,,,0.00,WeatherCatV1.15B25,2013-07-21 04:26:00,
2013-07-21 00:31:00,75.4,71.9,30.08,East,94,0.0,2.0,89,0.00,,,0.00,WeatherCatV1.15B25,2013-07-21 04:31:00,
2013-07-21 00:36:00,75.4,71.9,30.08,East,94,0.0,2.0,89,0.00,,,0.00,WeatherCatV1.15B25,2013-07-21 04:36:00,
2013-07-21 00:41:00,75.4,72.3,30.08,East,90,0.0,1.0,90,0.00,,,0.00,WeatherCatV1.15B25,2013-07-21 04:41:00,
2013-07-21 00:46:00,75.4,72.3,30.07,East,85,0.0,2.0,90,0.00,,,0.00,WeatherCatV1.15B25,2013-07-21 04:46:00,
2013-07-21 00:51:00,75.4,72.3,30.07,East,85,0.0,0.0,90,0.00,,,0.00,WeatherCatV1.15B25,2013-07-21 04:51:00,
2013-07-21 00:56:00,75.3,72.2,30.07,East,85,0.0,0.0,90,0.00,,,0.00,WeatherCatV1.15B25,2013-07-21 04:56:00,
2013-07-21 01:01:00,75.3,72.2,30.07,East,85,1.0,1.0,90,0.00,,,0.00,WeatherCatV1.15B25,2013-07-21 05:01:00,
2013-07-21 01:06:00,75.2,72.1,30.07,East,85,0.0,1.0,90,0.00,,,0.00,WeatherCatV1.15B25,2013-07-21 05:06:00,
2013-07-21 01:11:00,75.2,72.1,30.07,East,85,0.0,0.0,90,0.00,,,0.00,WeatherCatV1.15B25,2013-07-21 05:11:00,
2013-07-21 01:16:00,75.1,72.3,30.07,East,85,0.0,1.0,91,0.00,,,0.00,WeatherCatV1.15B25,2013-07-21 05:16:00,
2013-07-21 01:21:00,75.0,72.2,30.07,East,85,0.0,1.0,91,0.00,,,0.00,WeatherCatV1.15B25,2013-07-21 05:21:00,
2013-07-21 01:26:00,75.0,72.2,30.07,East,85,1.0,1.0,91,0.00,,,0.00,WeatherCatV1.15B25,2013-07-21 05:26:00,
2013-07-21 01:31:00,75.0,72.2,30.06,East,85,1.0,1.0,91,0.00,,,0.00,WeatherCatV1.15B25,2013-07-21 05:31:00,
2013-07-21 01:33:00,75.0,72.2,30.06,East,86,0.0,1.0,91,0.00,,,0.00,WeatherCatV1.15B25,2013-07-21 05:33:00,
2013-07-21 01:38:00,74.9,72.1,30.06,ESE,110,0.0,0.0,91,0.00,,,0.00,WeatherCatV1.15B25,2013-07-21 05:38:00,
2013-07-21 01:43:00,74.9,72.1,30.06,ESE,110,0.0,0.0,91,0.00,,,0.00,WeatherCatV1.15B25,2013-07-21 05:43:00,
2013-07-21 01:48:00,74.9,72.1,30.06,ESE,104,0.0,0.0,91,0.00,,,0.00,WeatherCatV1.15B25,2013-07-21 05:48:00,
2013-07-21 01:53:00,74.8,72.0,30.06,ESE,104,0.0,0.0,91,0.00,,,0.00,WeatherCatV1.15B25,2013-07-21 05:53:00,
2013-07-21 01:58:00,74.8,72.0,30.06,ESE,104,0.0,0.0,91,0.00,,,0.00,WeatherCatV1.15B25,2013-07-21 05:58:00,
2013-07-21 02:02:00,74.8,72.0,30.06,ESE,104,0.0,0.0,91,0.00,,,0.00,WeatherCatV1.15B25,2013-07-21 06:02:00,
2013-07-21 02:07:00,74.8,72.0,30.06,ESE,104,0.0,0.0,91,0.00,,,0.00,WeatherCatV1.15B25,2013-07-21 06:07:00,
2013-07-21 02:12:00,74.8,72.0,30.06,ESE,104,0.0,0.0,91,0.00,,,0.00,WeatherCatV1.15B25,2013-07-21 06:12:00,
2013-07-21 02:17:00,74.7,71.9,30.06,ESE,104,0.0,0.0,91,0.00,,,0.00,WeatherCatV1.15B25,2013-07-21 06:17:00,
2013-07-21 02:22:00,74.7,71.9,30.06,ESE,104,0.0,0.0,91,0.00,,,0.00,WeatherCatV1.15B25,2013-07-21 06:22:00,
2013-07-21 02:27:00,74.6,71.8,30.06,ESE,104,0.0,0.0,91,0.00,,,0.00,WeatherCatV1.15B25,2013-07-21 06:27:00,
2013-07-21 02:32:00,74.6,71.8,30.06,ESE,104,0.0,0.0,91,0.00,,,0.00,WeatherCatV1.15B25,2013-07-21 06:32:00,
2013-07-21 02:37:00,74.6,72.1,30.06,ESE,104,0.0,0.0,92,0.00,,,0.00,WeatherCatV1.15B25,2013-07-21 06:37:00,
2013-07-21 02:42:00,74.6,72.1,30.05,ESE,104,0.0,0.0,92,0.00,,,0.00,WeatherCatV1.15B25,2013-07-21 06:42:00,
2013-07-21 02:47:00,74.6,72.1,30.05,ESE,103,0.0,0.0,92,0.00,,,0.00,WeatherCatV1.15B25,2013-07-21 06:47:00,
2013-07-21 02:52:00,74.6,71.8,30.05,ESE,103,0.0,0.0,91,0.00,,,0.00,WeatherCatV1.15B25,2013-07-21 06:52:00,
2013-07-21 02:57:00,74.5,71.7,30.05,ESE,103,0.0,0.0,91,0.00,,,0.00,WeatherCatV1.15B25,2013-07-21 06:57:00,
2013-07-21 03:02:00,74.5,72.0,30.05,ESE,103,0.0,0.0,92,0.00,,,0.00,WeatherCatV1.15B25,2013-07-21 07:02:00,
2013-07-21 03:07:00,74.5,72.0,30.05,ESE,103,0.0,0.0,92,0.00,,,0.00,WeatherCatV1.15B25,2013-07-21 07:07:00,
2013-07-21 03:12:00,74.5,72.0,30.05,ESE,103,0.0,0.0,92,0.00,,,0.00,WeatherCatV1.15B25,2013-07-21 07:12:00,
2013-07-21 03:17:00,74.5,72.0,30.05,ESE,103,0.0,0.0,92,0.00,,,0.00,WeatherCatV1.15B25,2013-07-21 07:17:00,
2013-07-21 03:22:00,74.5,72.0,30.05,ESE,103,0.0,0.0,92,0.00,,,0.00,WeatherCatV1.15B25,2013-07-21 07:22:00,
2013-07-21 03:27:00,74.5,72.0,30.05,ESE,103,0.0,0.0,92,0.00,,,0.00,WeatherCatV1.15B25,2013-07-21 07:27:00,
2013-07-21 03:32:00,74.5,72.0,30.05,ESE,102,0.0,0.0,92,0.00,,,0.00,WeatherCatV1.15B25,2013-07-21 07:32:00,
2013-07-21 03:37:00,74.4,71.9,30.05,ESE,102,0.0,1.0,92,0.00,,,0.00,WeatherCatV1.15B25,2013-07-21 07:37:00,
2013-07-21 03:42:00,74.5,72.3,30.05,ESE,102,0.0,0.0,93,0.00,,,0.00,WeatherCatV1.15B25,2013-07-21 07:42:00,
2013-07-21 03:47:00,74.5,72.3,30.05,ESE,102,0.0,0.0,93,0.00,,,0.00,WeatherCatV1.15B25,2013-07-21 07:47:00,
2013-07-21 03:52:00,74.5,72.3,30.05,ESE,102,0.0,0.0,93,0.00,,,0.00,WeatherCatV1.15B25,2013-07-21 07:52:00,
2013-07-21 03:57:00,74.5,72.3,30.05,ESE,102,0.0,0.0,93,0.00,,,0.00,WeatherCatV1.15B25,2013-07-21 07:57:00,
2013-07-21 04:02:00,74.5,72.3,30.05,ESE,102,0.0,0.0,93,0.00,,,0.00,WeatherCatV1.15B25,2013-07-21 08:02:00,
2013-07-21 04:07:00,74.4,72.2,30.05,ESE,102,0.0,0.0,93,0.00,,,0.00,WeatherCatV1.15B25,2013-07-21 08:07:00,
2013-07-21 04:12:00,74.4,72.2,30.05,ESE,102,0.0,0.0,93,0.00,,,0.00,WeatherCatV1.15B25,2013-07-21 08:12:00,
2013-07-21 04:17:00,74.4,72.2,30.05,East,98,0.0,1.0,93,0.00,,,0.00,WeatherCatV1.15B25,2013-07-21 08:17:00,
2013-07-21 04:20:00,74.5,72.3,30.05,East,97,0.0,1.0,93,0.00,,,0.00,WeatherCatV1.15B25,2013-07-21 08:20:00,
2013-07-21 04:25:00,74.5,72.3,30.05,East,97,0.0,0.0,93,0.00,,,0.00,WeatherCatV1.15B25,2013-07-21 08:25:00,
2013-07-21 04:30:00,74.5,72.3,30.05,East,97,0.0,0.0,93,0.00,,,0.00,WeatherCatV1.15B25,2013-07-21 08:30:00,
2013-07-21 04:35:00,74.5,72.3,30.05,East,97,0.0,0.0,93,0.00,,,0.00,WeatherCatV1.15B25,2013-07-21 08:35:00,
2013-07-21 04:40:00,74.4,72.2,30.05,East,97,0.0,0.0,93,0.00,,,0.00,WeatherCatV1.15B25,2013-07-21 08:40:00,
2013-07-21 04:45:00,74.4,72.2,30.05,East,97,0.0,0.0,93,0.00,,,0.00,WeatherCatV1.15B25,2013-07-21 08:45:00,
2013-07-21 04:50:00,74.3,72.1,30.04,East,97,0.0,0.0,93,0.00,,,0.00,WeatherCatV1.15B25,2013-07-21 08:50:00,
2013-07-21 04:55:00,74.3,72.1,30.04,East,97,0.0,0.0,93,0.00,,,0.00,WeatherCatV1.15B25,2013-07-21 08:55:00,
2013-07-21 05:00:00,74.2,72.0,30.04,East,97,0.0,0.0,93,0.00,,,0.00,WeatherCatV1.15B25,2013-07-21 09:00:00,
2013-07-21 05:05:00,74.1,71.6,30.04,East,97,0.0,0.0,92,0.00,,,0.00,WeatherCatV1.15B25,2013-07-21 09:05:00,
2013-07-21 05:10:00,74.0,71.8,30.04,East,97,0.0,0.0,93,0.00,,,0.00,WeatherCatV1.15B25,2013-07-21 09:10:00,
2013-07-21 05:15:00,74.0,71.8,30.04,East,97,0.0,0.0,93,0.00,,,0.00,WeatherCatV1.15B25,2013-07-21 09:15:00,
2013-07-21 05:20:00,74.1,71.9,30.05,East,97,0.0,0.0,93,0.00,,,0.00,WeatherCatV1.15B25,2013-07-21 09:20:00,
2013-07-21 05:25:00,74.1,71.9,30.04,East,97,0.0,0.0,93,0.00,,,0.00,WeatherCatV1.15B25,2013-07-21 09:25:00,
2013-07-21 05:30:00,74.0,71.8,30.04,East,97,0.0,0.0,93,0.00,,,0.00,WeatherCatV1.15B25,2013-07-21 09:30:00,
2013-07-21 05:35:00,74.0,71.8,30.04,East,97,0.0,0.0,93,0.00,,,0.00,WeatherCatV1.15B25,2013-07-21 09:35:00,
2013-07-21 05:40:00,74.0,71.8,30.05,East,97,0.0,0.0,93,0.00,,,0.00,WeatherCatV1.15B25,2013-07-21 09:40:00,
2013-07-21 05:45:00,74.0,71.8,30.05,East,97,0.0,1.0,93,0.00,,,0.00,WeatherCatV1.15B25,2013-07-21 09:45:00,
2013-07-21 05:50:00,74.0,71.8,30.05,East,97,0.0,0.0,93,0.00,,,0.00,WeatherCatV1.15B25,2013-07-21 09:50:00,
2013-07-21 05:55:00,74.0,71.8,30.05,East,97,0.0,0.0,93,0.00,,,0.00,WeatherCatV1.15B25,2013-07-21 09:55:00,
2013-07-21 06:00:00,73.9,71.7,30.05,East,97,0.0,0.0,93,0.00,,,0.00,WeatherCatV1.15B25,2013-07-21 10:00:00,
2013-07-21 06:05:00,73.9,71.7,30.05,East,97,0.0,1.0,93,0.00,,,0.00,WeatherCatV1.15B25,2013-07-21 10:05:00,
2013-07-21 06:10:00,73.9,71.7,30.05,East,97,0.0,0.0,93,0.00,,,0.00,WeatherCatV1.15B25,2013-07-21 10:10:00,
2013-07-21 06:11:00,73.9,72.1,30.05,East,97,0.0,0.0,94,0.00,,,0.00,WeatherCatV1.15B25,2013-07-21 10:11:00,
2013-07-21 06:16:00,73.9,71.7,30.05,East,97,0.0,0.0,93,0.00,,,0.00,WeatherCatV1.15B25,2013-07-21 10:16:00,
2013-07-21 06:21:00,73.9,72.1,30.06,East,97,0.0,0.0,94,0.00,,,0.00,WeatherCatV1.15B25,2013-07-21 10:21:00,
2013-07-21 06:26:00,73.9,72.1,30.06,East,97,0.0,0.0,94,0.00,,,0.00,WeatherCatV1.15B25,2013-07-21 10:26:00,
2013-07-21 06:31:00,73.9,72.1,30.06,East,97,0.0,0.0,94,0.00,,,0.00,WeatherCatV1.15B25,2013-07-21 10:31:00,
2013-07-21 06:36:00,73.9,72.1,30.06,East,97,0.0,0.0,94,0.00,,,0.00,WeatherCatV1.15B25,2013-07-21 10:36:00,
2013-07-21 06:41:00,74.0,72.2,30.06,East,97,0.0,0.0,94,0.00,,,0.00,WeatherCatV1.15B25,2013-07-21 10:41:00,
2013-07-21 06:46:00,74.0,72.2,30.06,East,97,0.0,0.0,94,0.00,,,0.00,WeatherCatV1.15B25,2013-07-21 10:46:00,
2013-07-21 06:51:00,74.0,72.2,30.06,East,97,0.0,0.0,94,0.00,,,0.00,WeatherCatV1.15B25,2013-07-21 10:51:00,
2013-07-21 06:56:00,74.1,72.3,30.06,East,97,0.0,0.0,94,0.00,,,0.00,WeatherCatV1.15B25,2013-07-21 10:56:00,
2013-07-21 07:01:00,74.1,72.3,30.06,ESE,109,2.0,3.0,94,0.00,,,0.00,WeatherCatV1.15B25,2013-07-21 11:01:00,
2013-07-21 07:06:00,74.2,72.4,30.06,East,96,0.0,1.0,94,0.00,,,0.00,WeatherCatV1.15B25,2013-07-21 11:06:00,
2013-07-21 07:11:00,74.2,72.4,30.06,East,96,0.0,0.0,94,0.00,,,0.00,WeatherCatV1.15B25,2013-07-21 11:11:00,
2013-07-21 07:16:00,74.2,72.4,30.06,East,96,0.0,0.0,94,0.00,,,0.00,WeatherCatV1.15B25,2013-07-21 11:16:00,
2013-07-21 07:21:00,74.4,72.6,30.06,East,96,0.0,0.0,94,0.00,,,0.00,WeatherCatV1.15B25,2013-07-21 11:21:00,
2013-07-21 07:26:00,74.6,72.8,30.07,East,96,0.0,0.0,94,0.00,,,0.00,WeatherCatV1.15B25,2013-07-21 11:26:00,
2013-07-21 07:31:00,74.9,73.1,30.07,East,101,0.0,1.0,94,0.00,,,0.00,WeatherCatV1.15B25,2013-07-21 11:31:00,
2013-07-21 07:36:00,75.2,73.3,30.08,East,97,0.0,0.0,94,0.00,,,0.00,WeatherCatV1.15B25,2013-07-21 11:36:00,
2013-07-21 07:41:00,75.6,73.4,30.07,East,101,1.0,1.0,93,0.00,,,0.00,WeatherCatV1.15B25,2013-07-21 11:41:00,
2013-07-21 07:46:00,76.0,73.8,30.08,East,90,0.0,1.0,93,0.00,,,0.00,WeatherCatV1.15B25,2013-07-21 11:46:00,
2013-07-21 07:51:00,76.3,73.8,30.08,East,91,0.0,1.0,92,0.00,,,0.00,WeatherCatV1.15B25,2013-07-21 11:51:00,
2013-07-21 07:56:00,76.8,74.0,30.08,East,92,1.0,2.0,91,0.00,,,0.00,WeatherCatV1.15B25,2013-07-21 11:56:00,
2013-07-21 08:01:00,77.2,74.0,30.08,East,92,0.0,0.0,90,0.00,,,0.00,WeatherCatV1.15B25,2013-07-21 12:01:00,
2013-07-21 08:06:00,77.6,74.4,30.09,East,99,0.0,1.0,90,0.00,,,0.00,WeatherCatV1.15B25,2013-07-21 12:06:00,
2013-07-21 08:11:00,78.1,74.6,30.09,ESE,103,0.0,1.0,89,0.00,,,0.00,WeatherCatV1.15B25,2013-07-21 12:11:00,
2013-07-21 08:16:00,78.7,74.8,30.09,ESE,119,0.0,1.0,88,0.00,,,0.00,WeatherCatV1.15B25,2013-07-21 12:16:00,
2013-07-21 08:21:00,79.2,75.0,30.09,SE,126,1.0,1.0,87,0.00,,,0.00,WeatherCatV1.15B25,2013-07-21 12:21:00,
2013-07-21 08:26:00,79.7,75.1,30.09,ESE,111,0.0,4.0,86,0.00,,,0.00,WeatherCatV1.15B25,2013-07-21 12:26:00,
2013-07-21 08:31:00,80.1,75.2,30.09,East,99,0.0,2.0,85,0.00,,,0.00,WeatherCatV1.15B25,2013-07-21 12:31:00,
2013-07-21 08:36:00,80.5,75.2,30.09,SE,124,0.0,1.0,84,0.00,,,0.00,WeatherCatV1.15B25,2013-07-21 12:36:00,
2013-07-21 08:41:00,80.9,75.6,30.10,ESE,105,0.0,0.0,84,0.00,,,0.00,WeatherCatV1.15B25,2013-07-21 12:41:00,
2013-07-21 08:46:00,81.5,75.8,30.10,SSE,152,0.0,0.0,83,0.00,,,0.00,WeatherCatV1.15B25,2013-07-21 12:46:00,
2013-07-21 08:51:00,82.3,76.2,30.10,East,97,0.0,0.0,82,0.00,,,0.00,WeatherCatV1.15B25,2013-07-21 12:51:00,
2013-07-21 08:56:00,82.9,76.4,30.10,South,175,0.0,5.0,81,0.00,,,0.00,WeatherCatV1.15B25,2013-07-21 12:56:00,
2013-07-21 09:01:00,83.1,76.6,30.10,SE,126,2.0,3.0,81,0.00,,,0.00,WeatherCatV1.15B25,2013-07-21 13:01:00,
2013-07-21 09:06:00,83.1,76.6,30.10,SE,136,0.0,1.0,81,0.00,,,0.00,WeatherCatV1.15B25,2013-07-21 13:06:00,
2013-07-21 09:11:00,83.3,76.8,30.10,SE,138,0.0,2.0,81,0.00,,,0.00,WeatherCatV1.15B25,2013-07-21 13:11:00,
2013-07-21 09:16:00,83.7,77.2,30.10,SE,129,0.0,4.0,81,0.00,,,0.00,WeatherCatV1.15B25,2013-07-21 13:16:00,
2013-07-21 09:21:00,84.2,77.3,30.10,SE,131,0.0,1.0,80,0.00,,,0.00,WeatherCatV1.15B25,2013-07-21 13:21:00,
2013-07-21 09:26:00,84.6,77.3,30.10,ESE,104,0.0,0.0,79,0.00,,,0.00,WeatherCatV1.15B25,2013-07-21 13:26:00,
2013-07-21 09:31:00,84.9,77.2,30.10,SSE,157,0.0,3.0,78,0.00,,,0.00,WeatherCatV1.15B25,2013-07-21 13:31:00,
2013-07-21 09:36:00,85.2,77.5,30.10,East,90,0.0,3.0,78,0.00,,,0.00,WeatherCatV1.15B25,2013-07-21 13:36:00,
2013-07-21 09:41:00,85.2,77.5,30.10,East,90,0.0,0.0,78,0.00,,,0.00,WeatherCatV1.15B25,2013-07-21 13:41:00,
2013-07-21 09:46:00,85.6,77.9,30.10,ESE,102,0.0,1.0,78,0.00,,,0.00,WeatherCatV1.15B25,2013-07-21 13:46:00,
2013-07-21 09:51:00,85.8,78.1,30.10,SSE,148,0.0,0.0,78,0.00,,,0.00,WeatherCatV1.15B25,2013-07-21 13:51:00,
2013-07-21 09:56:00,86.0,78.3,30.10,SSE,148,0.0,1.0,78,0.00,,,0.00,WeatherCatV1.15B25,2013-07-21 13:56:00,
2013-07-21 10:01:00,85.8,77.7,30.10,ESE,117,0.0,0.0,77,0.00,,,0.00,WeatherCatV1.15B25,2013-07-21 14:01:00,
2013-07-21 10:06:00,85.6,77.9,30.10,SSE,167,0.0,3.0,78,0.00,,,0.00,WeatherCatV1.15B25,2013-07-21 14:06:00,
2013-07-21 10:11:00,85.5,77.8,30.10,SSE,151,0.0,1.0,78,0.00,,,0.00,WeatherCatV1.15B25,2013-07-21 14:11:00,
2013-07-21 10:16:00,85.5,77.8,30.10,South,175,0.0,2.0,78,0.00,,,0.00,WeatherCatV1.15B25,2013-07-21 14:16:00,
2013-07-21 10:21:00,85.7,78.4,30.11,WSW,244,1.0,2.0,79,0.00,,,0.00,WeatherCatV1.15B25,2013-07-21 14:21:00,
2013-07-21 10:26:00,86.1,78.0,30.10,SSE,163,0.0,2.0,77,0.00,,,0.00,WeatherCatV1.15B25,2013-07-21 14:26:00,
2013-07-21 10:31:00,86.5,78.4,30.10,SSE,163,0.0,0.0,77,0.00,,,0.00,WeatherCatV1.15B25,2013-07-21 14:31:00,
2013-07-21 10:36:00,86.8,78.3,30.10,SSW,207,0.0,3.0,76,0.00,,,0.00,WeatherCatV1.15B25,2013-07-21 14:36:00,
2013-07-21 10:41:00,87.2,78.3,30.11,SSW,211,0.0,2.0,75,0.00,,,0.00,WeatherCatV1.15B25,2013-07-21 14:41:00,
2013-07-21 10:46:00,87.6,78.7,30.11,SSW,213,0.0,1.0,75,0.00,,,0.00,WeatherCatV1.15B25,2013-07-21 14:46:00,
2013-07-21 10:51:00,87.9,78.5,30.11,SW,223,0.0,1.0,74,0.00,,,0.00,WeatherCatV1.15B25,2013-07-21 14:51:00,
2013-07-21 10:56:00,88.0,78.2,30.11,SW,219,0.0,1.0,73,0.00,,,0.00,WeatherCatV1.15B25,2013-07-21 14:56:00,
2013-07-21 11:01:00,88.3,78.5,30.11,SSW,196,0.0,2.0,73,0.00,,,0.00,WeatherCatV1.15B25,2013-07-21 15:01:00,
2013-07-21 11:06:00,88.6,79.2,30.11,SSW,193,0.0,2.0,74,0.00,,,0.00,WeatherCatV1.15B25,2013-07-21 15:06:00,
2013-07-21 11:11:00,88.8,79.4,30.11,SSE,163,4.0,5.0,74,0.00,,,0.00,WeatherCatV1.15B25,2013-07-21 15:11:00,
2013-07-21 11:16:00,88.6,78.0,30.11,SSE,167,2.0,6.0,71,0.00,,,0.00,WeatherCatV1.15B25,2013-07-21 15:16:00,
2013-07-21 11:21:00,88.3,77.7,30.11,South,190,4.0,6.0,71,0.00,,,0.00,WeatherCatV1.15B25,2013-07-21 15:21:00,
2013-07-21 11:26:00,88.2,78.4,30.11,SSE,166,3.0,6.0,73,0.00,,,0.00,WeatherCatV1.15B25,2013-07-21 15:26:00,
2013-07-21 11:31:00,88.5,78.7,30.11,SW,221,0.0,6.0,73,0.00,,,0.00,WeatherCatV1.15B25,2013-07-21 15:31:00,
2013-07-21 11:36:00,88.6,78.4,30.11,SW,215,4.0,6.0,72,0.00,,,0.00,WeatherCatV1.15B25,2013-07-21 15:36:00,
2013-07-21 11:41:00,89.2,78.1,30.11,South,179,0.0,3.0,70,0.00,,,0.00,WeatherCatV1.15B25,2013-07-21 15:41:00,
2013-07-21 11:46:00,89.8,79.5,30.11,West,270,3.0,6.0,72,0.00,,,0.00,WeatherCatV1.15B25,2013-07-21 15:46:00,
2013-07-21 11:51:00,90.2,78.6,30.11,WSW,255,1.0,6.0,69,0.00,,,0.00,WeatherCatV1.15B25,2013-07-21 15:51:00,
2013-07-21 11:56:00,90.8,80.1,30.11,SSE,148,0.0,6.0,71,0.00,,,0.00,WeatherCatV1.15B25,2013-07-21 15:56:00,
2013-07-21 12:01:00,90.9,79.3,30.11,SSW,198,1.0,6.0,69,0.00,,,0.00,WeatherCatV1.15B25,2013-07-21 16:01:00,
2013-07-21 12:06:00,91.0,78.9,30.11,SSW,203,0.0,2.0,68,0.00,,,0.00,WeatherCatV1.15B25,2013-07-21 16:06:00,
2013-07-21 12:11:00,91.0,79.4,30.11,SSW,207,0.0,4.0,69,0.00,,,0.00,WeatherCatV1.15B25,2013-07-21 16:11:00,
2013-07-21 12:16:00,90.8,79.2,30.11,West,278,1.0,6.0,69,0.00,,,0.00,WeatherCatV1.15B25,2013-07-21 16:16:00,
2013-07-21 12:21:00,90.5,78.9,30.11,SSW,207,0.0,7.0,69,0.00,,,0.00,WeatherCatV1.15B25,2013-07-21 16:21:00,
2013-07-21 12:26:00,90.7,79.5,30.11,WSW,251,1.0,6.0,70,0.00,,,0.00,WeatherCatV1.15B25,2013-07-21 16:26:00,
2013-07-21 12:31:00,90.6,79.0,30.11,South,171,1.0,6.0,69,0.00,,,0.00,WeatherCatV1.15B25,2013-07-21 16:31:00,
2013-07-21 12:36:00,90.4,78.8,30.11,West,261,1.0,2.0,69,0.00,,,0.00,WeatherCatV1.15B25,2013-07-21 16:36:00,
2013-07-21 12:41:00,90.7,79.5,30.11,South,189,0.0,4.0,70,0.00,,,0.00,WeatherCatV1.15B25,2013-07-21 16:41:00,
2013-07-21 12:46:00,90.9,79.7,30.11,SSW,210,0.0,7.0,70,0.00,,,0.00,WeatherCatV1.15B25,2013-07-21 16:46:00,
2013-07-21 12:52:00,91.2,78.7,30.11,SW,229,2.0,3.0,67,0.00,,,0.00,WeatherCatV1.15B25,2013-07-21 16:52:00,
2013-07-21 12:57:00,91.4,80.6,30.11,SW,214,1.0,5.0,71,0.00,,,0.00,WeatherCatV1.15B25,2013-07-21 16:57:00,
2013-07-21 13:02:00,91.6,79.9,30.11,NW,318,0.0,5.0,69,0.00,,,0.00,WeatherCatV1.15B25,2013-07-21 17:02:00,
2013-07-21 13:07:00,91.4,79.8,30.11,South,188,1.0,5.0,69,0.00,,,0.00,WeatherCatV1.15B25,2013-07-21 17:07:00,
2013-07-21 13:12:00,91.2,80.0,30.11,SW,219,2.0,6.0,70,0.00,,,0.00,WeatherCatV1.15B25,2013-07-21 17:12:00,
2013-07-21 13:17:00,91.2,79.6,30.10,South,190,0.0,2.0,69,0.00,,,0.00,WeatherCatV1.15B25,2013-07-21 17:17:00,
2013-07-21 13:22:00,91.2,80.4,30.10,West,267,1.0,6.0,71,0.00,,,0.00,WeatherCatV1.15B25,2013-07-21 17:22:00,
2013-07-21 13:27:00,91.2,80.9,30.10,SW,227,2.0,7.0,72,0.00,,,0.00,WeatherCatV1.15B25,2013-07-21 17:27:00,
2013-07-21 13:32:00,91.4,81.5,30.10,SSW,207,1.0,9.0,73,0.00,,,0.00,WeatherCatV1.15B25,2013-07-21 17:32:00,
2013-07-21 13:37:00,91.5,81.2,30.10,SSE,168,2.0,5.0,72,0.00,,,0.00,WeatherCatV1.15B25,2013-07-21 17:37:00,
2013-07-21 13:42:00,91.0,79.8,30.10,SW,218,1.0,6.0,70,0.00,,,0.00,WeatherCatV1.15B25,2013-07-21 17:42:00,
2013-07-21 13:47:00,91.0,80.3,30.09,SSW,206,2.0,7.0,71,0.00,,,0.00,WeatherCatV1.15B25,2013-07-21 17:47:00,
2013-07-21 13:52:00,91.3,80.5,30.09,South,187,2.0,6.0,71,0.00,,,0.00,WeatherCatV1.15B25,2013-07-21 17:52:00,
2013-07-21 13:57:00,91.3,81.0,30.09,SSE,153,4.0,8.0,72,0.00,,,0.00,WeatherCatV1.15B25,2013-07-21 17:57:00,
2013-07-21 14:02:00,91.2,80.4,30.08,SW,231,6.0,8.0,71,0.00,,,0.00,WeatherCatV1.15B25,2013-07-21 18:02:00,
2013-07-21 14:07:00,91.2,80.4,30.08,SW,234,4.0,5.0,71,0.00,,,0.00,WeatherCatV1.15B25,2013-07-21 18:07:00,
2013-07-21 14:12:00,91.2,80.0,30.08,South,182,4.0,7.0,70,0.00,,,0.00,WeatherCatV1.15B25,2013-07-21 18:12:00,
2013-07-21 14:17:00,91.0,79.8,30.08,SSW,196,5.0,6.0,70,0.00,,,0.00,WeatherCatV1.15B25,2013-07-21 18:17:00,
2013-07-21 14:22:00,91.0,79.8,30.08,NW,307,2.0,4.0,70,0.00,,,0.00,WeatherCatV1.15B25,2013-07-21 18:22:00,
2013-07-21 14:27:00,90.7,80.4,30.08,West,280,0.0,6.0,72,0.00,,,0.00,WeatherCatV1.15B25,2013-07-21 18:27:00,
2013-07-21 14:32:00,90.7,80.0,30.08,WNW,286,1.0,6.0,71,0.00,,,0.00,WeatherCatV1.15B25,2013-07-21 18:32:00,
2013-07-21 14:37:00,91.1,79.9,30.08,West,264,3.0,5.0,70,0.00,,,0.00,WeatherCatV1.15B25,2013-07-21 18:37:00,
2013-07-21 14:42:00,90.7,79.5,30.07,SSW,200,0.0,7.0,70,0.00,,,0.00,WeatherCatV1.15B25,2013-07-21 18:42:00,
2013-07-21 14:47:00,90.3,79.6,30.07,WNW,283,2.0,8.0,71,0.00,,,0.00,WeatherCatV1.15B25,2013-07-21 18:47:00,
2013-07-21 14:52:00,90.7,79.5,30.07,SSE,159,4.0,5.0,70,0.00,,,0.00,WeatherCatV1.15B25,2013-07-21 18:52:00,
2013-07-21 14:57:00,90.8,79.6,30.07,WNW,287,1.0,6.0,70,0.00,,,0.00,WeatherCatV1.15B25,2013-07-21 18:57:00,
2013-07-21 15:02:00,90.9,79.3,30.07,WSW,254,1.0,8.0,69,0.00,,,0.00,WeatherCatV1.15B25,2013-07-21 19:02:00,
2013-07-21 15:07:00,91.0,79.8,30.07,SW,221,0.0,5.0,70,0.00,,,0.00,WeatherCatV1.15B25,2013-07-21 19:07:00,
2013-07-21 15:12:00,91.0,78.5,30.07,South,178,4.0,7.0,67,0.00,,,0.00,WeatherCatV1.15B25,2013-07-21 19:12:00,
2013-07-21 15:17:00,91.1,79.9,30.06,WSW,254,3.0,10.0,70,0.00,,,0.00,WeatherCatV1.15B25,2013-07-21 19:17:00,
2013-07-21 15:22:00,91.2,79.6,30.06,WSW,245,1.0,5.0,69,0.00,,,0.00,WeatherCatV1.15B25,2013-07-21 19:22:00,
2013-07-21 15:27:00,91.3,79.7,30.06,West,262,6.0,7.0,69,0.00,,,0.00,WeatherCatV1.15B25,2013-07-21 19:27:00,
2013-07-21 15:32:00,91.1,79.5,30.06,West,270,1.0,7.0,69,0.00,,,0.00,WeatherCatV1.15B25,2013-07-21 19:32:00,
2013-07-21 15:37:00,90.8,78.7,30.06,WNW,300,2.0,5.0,68,0.00,,,0.00,WeatherCatV1.15B25,2013-07-21 19:37:00,
2013-07-21 15:42:00,90.4,78.8,30.06,SSW,213,7.0,7.0,69,0.00,,,0.00,WeatherCatV1.15B25,2013-07-21 19:42:00,
2013-07-21 15:47:00,90.6,79.0,30.05,WSW,244,3.0,7.0,69,0.00,,,0.00,WeatherCatV1.15B25,2013-07-21 19:47:00,
2013-07-21 15:52:00,90.8,78.3,30.06,South,184,5.0,5.0,67,0.00,,,0.00,WeatherCatV1.15B25,2013-07-21 19:52:00,
2013-07-21 15:57:00,90.6,78.1,30.06,SW,214,6.0,6.0,67,0.00,,,0.00,WeatherCatV1.15B25,2013-07-21 19:57:00,
2013-07-21 16:02:00,90.5,78.0,30.06,NW,320,3.0,5.0,67,0.00,,,0.00,WeatherCatV1.15B25,2013-07-21 20:02:00,
2013-07-21 16:07:00,90.6,78.1,30.06,WSW,238,6.0,8.0,67,0.00,,,0.00,WeatherCatV1.15B25,2013-07-21 20:07:00,
2013-07-21 16:12:00,90.8,78.3,30.05,SSW,197,1.0,8.0,67,0.00,,,0.00,WeatherCatV1.15B25,2013-07-21 20:12:00,
2013-07-21 16:17:00,90.7,78.2,30.05,ENE,65,0.0,7.0,67,0.00,,,0.00,WeatherCatV1.15B25,2013-07-21 20:17:00,
2013-07-21 16:22:00,91.0,78.9,30.05,WNW,284,1.0,4.0,68,0.00,,,0.00,WeatherCatV1.15B25,2013-07-21 20:22:00,
2013-07-21 16:27:00,91.3,78.8,30.05,SW,221,1.0,4.0,67,0.00,,,0.00,WeatherCatV1.15B25,2013-07-21 20:27:00,
2013-07-21 16:32:00,91.2,78.2,30.04,SSE,159,1.0,6.0,66,0.00,,,0.00,WeatherCatV1.15B25,2013-07-21 20:32:00,
2013-07-21 16:37:00,91.0,78.0,30.04,SSW,196,1.0,4.0,66,0.00,,,0.00,WeatherCatV1.15B25,2013-07-21 20:37:00,
2013-07-21 16:42:00,90.6,77.6,30.04,SSW,200,0.0,7.0,66,0.00,,,0.00,WeatherCatV1.15B25,2013-07-21 20:42:00,
2013-07-21 16:47:00,90.4,77.5,30.04,SW,217,1.0,5.0,66,0.00,,,0.00,WeatherCatV1.15B25,2013-07-21 20:47:00,
2013-07-21 16:52:00,89.7,77.7,30.04,SW,227,0.0,9.0,68,0.00,,,0.00,WeatherCatV1.15B25,2013-07-21 20:52:00,
2013-07-21 16:57:00,89.6,78.5,30.05,WSW,240,10.0,10.0,70,0.00,,,0.00,WeatherCatV1.15B25,2013-07-21 20:57:00,
2013-07-21 17:02:00,89.8,78.7,30.05,West,269,3.0,5.0,70,0.00,,,0.00,WeatherCatV1.15B25,2013-07-21 21:02:00,
2013-07-21 17:07:00,89.7,78.1,30.05,SW,225,2.0,8.0,69,0.00,,,0.00,WeatherCatV1.15B25,2013-07-21 21:07:00,
2013-07-21 17:12:00,89.4,78.3,30.05,SSE,161,0.0,1.0,70,0.00,,,0.00,WeatherCatV1.15B25,2013-07-21 21:12:00,
2013-07-21 17:17:00,89.4,78.3,30.05,WNW,283,2.0,5.0,70,0.00,,,0.00,WeatherCatV1.15B25,2013-07-21 21:17:00,
2013-07-21 17:22:00,89.6,77.6,30.04,WSW,253,3.0,6.0,68,0.00,,,0.00,WeatherCatV1.15B25,2013-07-21 21:22:00,
2013-07-21 17:27:00,89.5,77.5,30.05,South,182,2.0,2.0,68,0.00,,,0.00,WeatherCatV1.15B25,2013-07-21 21:27:00,
2013-07-21 17:32:00,89.5,77.5,30.04,South,191,4.0,4.0,68,0.00,,,0.00,WeatherCatV1.15B25,2013-07-21 21:32:00,
2013-07-21 17:37:00,89.7,78.1,30.04,SSW,209,4.0,8.0,69,0.00,,,0.00,WeatherCatV1.15B25,2013-07-21 21:37:00,
2013-07-21 17:42:00,89.9,78.3,30.04,SSW,192,1.0,3.0,69,0.00,,,0.00,WeatherCatV1.15B25,2013-07-21 21:42:00,
2013-07-21 17:47:00,90.0,78.9,30.05,South,186,3.0,6.0,70,0.00,,,0.00,WeatherCatV1.15B25,2013-07-21 21:47:00,
2013-07-21 17:52:00,89.9,77.9,30.04,SSE,150,2.0,4.0,68,0.00,,,0.00,WeatherCatV1.15B25,2013-07-21 21:52:00,
2013-07-21 17:57:00,89.7,78.1,30.04,SW,236,0.0,8.0,69,0.00,,,0.00,WeatherCatV1.15B25,2013-07-21 21:57:00,
2013-07-21 18:02:00,89.7,78.1,30.05,SSW,212,4.0,7.0,69,0.00,,,0.00,WeatherCatV1.15B25,2013-07-21 22:02:00,
2013-07-21 18:07:00,89.5,77.9,30.05,SW,221,2.0,2.0,69,0.00,,,0.00,WeatherCatV1.15B25,2013-07-21 22:07:00,
2013-07-21 18:12:00,89.5,78.4,30.05,South,186,3.0,10.0,70,0.00,,,0.00,WeatherCatV1.15B25,2013-07-21 22:12:00,
2013-07-21 18:17:00,89.4,77.9,30.05,West,277,2.0,5.0,69,0.00,,,0.00,WeatherCatV1.15B25,2013-07-21 22:17:00,
2013-07-21 18:22:00,89.5,78.8,30.05,SW,235,2.0,7.0,71,0.00,,,0.00,WeatherCatV1.15B25,2013-07-21 22:22:00,
2013-07-21 18:27:00,89.5,78.4,30.05,South,182,0.0,2.0,70,0.00,,,0.00,WeatherCatV1.15B25,2013-07-21 22:27:00,
2013-07-21 18:32:00,89.3,78.2,30.05,WSW,244,2.0,7.0,70,0.00,,,0.00,WeatherCatV1.15B25,2013-07-21 22:32:00,
2013-07-21 18:37:00,89.3,78.6,30.05,WSW,243,5.0,5.0,71,0.00,,,0.00,WeatherCatV1.15B25,2013-07-21 22:37:00,
2013-07-21 18:42:00,89.1,77.6,30.05,SW,219,0.0,3.0,69,0.00,,,0.00,WeatherCatV1.15B25,2013-07-21 22:42:00,
2013-07-21 18:47:00,88.9,77.4,30.05,WSW,251,1.0,2.0,69,0.00,,,0.00,WeatherCatV1.15B25,2013-07-21 22:47:00,
2013-07-21 18:52:00,88.9,77.8,30.05,West,280,6.0,7.0,70,0.00,,,0.00,WeatherCatV1.15B25,2013-07-21 22:52:00,
2013-07-21 18:57:00,88.8,77.3,30.05,WNW,290,5.0,5.0,69,0.00,,,0.00,WeatherCatV1.15B25,2013-07-21 22:57:00,
2013-07-21 19:02:00,88.6,78.0,30.05,WSW,248,0.0,2.0,71,0.00,,,0.00,WeatherCatV1.15B25,2013-07-21 23:02:00,
2013-07-21 19:07:00,88.5,77.4,30.05,SW,225,0.0,7.0,70,0.00,,,0.00,WeatherCatV1.15B25,2013-07-21 23:07:00,
2013-07-21 19:12:00,88.3,78.1,30.05,WNW,288,0.0,6.0,72,0.00,,,0.00,WeatherCatV1.15B25,2013-07-21 23:12:00,
2013-07-21 19:17:00,88.3,78.1,30.06,WSW,241,1.0,1.0,72,0.00,,,0.00,WeatherCatV1.15B25,2013-07-21 23:17:00,
2013-07-21 19:22:00,88.3,77.7,30.06,SSW,195,0.0,2.0,71,0.00,,,0.00,WeatherCatV1.15B25,2013-07-21 23:22:00,
2013-07-21 19:27:00,88.0,77.4,30.05,SSW,210,1.0,2.0,71,0.00,,,0.00,WeatherCatV1.15B25,2013-07-21 23:27:00,
2013-07-21 19:32:00,87.6,77.8,30.06,WSW,252,3.0,4.0,73,0.00,,,0.00,WeatherCatV1.15B25,2013-07-21 23:32:00,
2013-07-21 19:37:00,87.4,77.2,30.06,SW,230,1.0,5.0,72,0.00,,,0.00,WeatherCatV1.15B25,2013-07-21 23:37:00,
2013-07-21 19:42:00,87.2,77.5,30.06,SSW,192,0.0,2.0,73,0.00,,,0.00,WeatherCatV1.15B25,2013-07-21 23:42:00,
2013-07-21 19:47:00,86.9,77.2,30.06,West,281,5.0,5.0,73,0.00,,,0.00,WeatherCatV1.15B25,2013-07-21 23:47:00,
2013-07-21 19:52:00,86.7,77.0,30.07,WSW,251,0.0,3.0,73,0.00,,,0.00,WeatherCatV1.15B25,2013-07-21 23:52:00,
2013-07-21 19:57:00,86.5,77.2,30.07,West,268,3.0,6.0,74,0.00,,,0.00,WeatherCatV1.15B25,2013-07-21 23:57:00,
2013-07-21 20:02:00,86.3,77.0,30.07,West,262,1.0,4.0,74,0.00,,,0.00,WeatherCatV1.15B25,2013-07-22 00:02:00,
2013-07-21 20:07:00,86.0,77.1,30.07,SSW,207,0.0,2.0,75,0.00,,,0.00,WeatherCatV1.15B25,2013-07-22 00:07:00,
2013-07-21 20:12:00,85.8,76.9,30.08,WSW,248,4.0,4.0,75,0.00,,,0.00,WeatherCatV1.15B25,2013-07-22 00:12:00,
2013-07-21 20:17:00,85.6,76.7,30.08,WSW,248,0.0,1.0,75,0.00,,,0.00,WeatherCatV1.15B25,2013-07-22 00:17:00,
2013-07-21 20:22:00,85.3,76.8,30.08,SSW,194,0.0,1.0,76,0.00,,,0.00,WeatherCatV1.15B25,2013-07-22 00:22:00,
2013-07-21 20:27:00,85.1,76.7,30.09,SW,229,0.0,1.0,76,0.00,,,0.00,WeatherCatV1.15B25,2013-07-22 00:27:00,
2013-07-21 20:32:00,84.8,76.4,30.09,SW,215,0.0,0.0,76,0.00,,,0.00,WeatherCatV1.15B25,2013-07-22 00:32:00,
2013-07-21 20:37:00,84.6,76.6,30.10,SW,215,0.0,0.0,77,0.00,,,0.00,WeatherCatV1.15B25,2013-07-22 00:37:00,
2013-07-21 20:42:00,84.4,76.4,30.10,SW,215,0.0,0.0,77,0.00,,,0.00,WeatherCatV1.15B25,2013-07-22 00:42:00,
2013-07-21 20:47:00,84.3,76.3,30.10,SW,215,0.0,0.0,77,0.00,,,0.00,WeatherCatV1.15B25,2013-07-22 00:47:00,
2013-07-21 20:52:00,84.2,76.2,30.10,SW,215,0.0,0.0,77,0.00,,,0.00,WeatherCatV1.15B25,2013-07-22 00:52:00,
2013-07-21 20:57:00,84.1,76.5,30.10,SW,236,0.0,1.0,78,0.00,,,0.00,WeatherCatV1.15B25,2013-07-22 00:57:00,
2013-07-21 21:02:00,84.0,76.4,30.10,SW,236,0.0,0.0,78,0.00,,,0.00,WeatherCatV1.15B25,2013-07-22 01:02:00,
2013-07-21 21:07:00,83.8,76.2,30.10,SW,236,0.0,0.0,78,0.00,,,0.00,WeatherCatV1.15B25,2013-07-22 01:07:00,
2013-07-21 21:12:00,83.7,76.5,30.10,SW,236,0.0,0.0,79,0.00,,,0.00,WeatherCatV1.15B25,2013-07-22 01:12:00,
2013-07-21 21:17:00,83.6,76.0,30.10,SW,216,0.0,0.0,78,0.00,,,0.00,WeatherCatV1.15B25,2013-07-22 01:17:00,
2013-07-21 21:22:00,83.5,76.3,30.10,SW,216,0.0,0.0,79,0.00,,,0.00,WeatherCatV1.15B25,2013-07-22 01:22:00,
2013-07-21 21:27:00,83.4,76.2,30.10,SW,216,0.0,0.0,79,0.00,,,0.00,WeatherCatV1.15B25,2013-07-22 01:27:00,
2013-07-21 21:32:00,83.3,76.1,30.10,SW,216,0.0,0.0,79,0.00,,,0.00,WeatherCatV1.15B25,2013-07-22 01:32:00,
2013-07-21 21:37:00,83.2,76.0,30.11,WSW,238,0.0,0.0,79,0.00,,,0.00,WeatherCatV1.15B25,2013-07-22 01:37:00,
2013-07-21 21:42:00,83.2,76.0,30.11,WSW,238,0.0,0.0,79,0.00,,,0.00,WeatherCatV1.15B25,2013-07-22 01:42:00,
2013-07-21 21:47:00,83.1,75.9,30.11,SW,234,0.0,0.0,79,0.00,,,0.00,WeatherCatV1.15B25,2013-07-22 01:47:00,
2013-07-21 21:52:00,83.0,76.2,30.11,WSW,240,0.0,0.0,80,0.00,,,0.00,WeatherCatV1.15B25,2013-07-22 01:52:00,
2013-07-21 21:57:00,82.9,76.1,30.11,WSW,239,0.0,0.0,80,0.00,,,0.00,WeatherCatV1.15B25,2013-07-22 01:57:00,
2013-07-21 22:02:00,82.9,76.1,30.11,WSW,237,0.0,0.0,80,0.00,,,0.00,WeatherCatV1.15B25,2013-07-22 02:02:00,
2013-07-21 22:07:00,82.8,76.0,30.11,SW,229,0.0,0.0,80,0.00,,,0.00,WeatherCatV1.15B25,2013-07-22 02:07:00,
2013-07-21 22:12:00,82.7,75.9,30.11,SW,229,0.0,0.0,80,0.00,,,0.00,WeatherCatV1.15B25,2013-07-22 02:12:00,
2013-07-21 22:17:00,82.6,75.8,30.11,SW,229,0.0,0.0,80,0.00,,,0.00,WeatherCatV1.15B25,2013-07-22 02:17:00,
2013-07-21 22:22:00,82.5,76.1,30.11,SW,230,0.0,0.0,81,0.00,,,0.00,WeatherCatV1.15B25,2013-07-22 02:22:00,
2013-07-21 22:27:00,82.5,75.7,30.11,SW,230,0.0,0.0,80,0.00,,,0.00,WeatherCatV1.15B25,2013-07-22 02:27:00,
2013-07-21 22:32:00,82.4,76.0,30.11,SW,230,0.0,0.0,81,0.00,,,0.00,WeatherCatV1.15B25,2013-07-22 02:32:00,
2013-07-21 22:37:00,82.4,76.0,30.11,SW,230,0.0,0.0,81,0.00,,,0.00,WeatherCatV1.15B25,2013-07-22 02:37:00,
2013-07-21 22:42:00,82.3,75.9,30.11,SW,230,0.0,0.0,81,0.00,,,0.00,WeatherCatV1.15B25,2013-07-22 02:42:00,
2013-07-21 22:47:00,82.3,75.9,30.11,SW,230,0.0,0.0,81,0.00,,,0.00,WeatherCatV1.15B25,2013-07-22 02:47:00,
2013-07-21 22:52:00,82.2,75.8,30.12,SW,230,0.0,0.0,81,0.00,,,0.00,WeatherCatV1.15B25,2013-07-22 02:52:00,
2013-07-21 22:57:00,82.1,75.7,30.12,SW,230,0.0,0.0,81,0.00,,,0.00,WeatherCatV1.15B25,2013-07-22 02:57:00,
2013-07-21 23:02:00,82.1,76.0,30.12,SW,230,0.0,0.0,82,0.00,,,0.00,WeatherCatV1.15B25,2013-07-22 03:02:00,
2013-07-21 23:07:00,82.0,75.9,30.12,SW,230,0.0,0.0,82,0.00,,,0.00,WeatherCatV1.15B25,2013-07-22 03:07:00,
2013-07-21 23:12:00,82.0,75.9,30.11,SW,230,0.0,0.0,82,0.00,,,0.00,WeatherCatV1.15B25,2013-07-22 03:12:00,
2013-07-21 23:17:00,81.9,75.8,30.11,SW,230,0.0,0.0,82,0.00,,,0.00,WeatherCatV1.15B25,2013-07-22 03:17:00,
2013-07-21 23:22:00,81.8,75.7,30.11,SW,230,0.0,0.0,82,0.00,,,0.00,WeatherCatV1.15B25,2013-07-22 03:22:00,
2013-07-21 23:27:00,81.8,75.7,30.11,SW,230,0.0,0.0,82,0.00,,,0.00,WeatherCatV1.15B25,2013-07-22 03:27:00,
2013-07-21 23:32:00,81.7,76.0,30.11,WSW,237,0.0,0.0,83,0.00,,,0.00,WeatherCatV1.15B25,2013-07-22 03:32:00,
2013-07-21 23:37:00,81.7,76.0,30.11,WSW,248,0.0,0.0,83,0.00,,,0.00,WeatherCatV1.15B25,2013-07-22 03:37:00,
2013-07-21 23:42:00,81.6,75.9,30.11,WSW,248,0.0,0.0,83,0.00,,,0.00,WeatherCatV1.15B25,2013-07-22 03:42:00,
2013-07-21 23:47:00,81.5,75.8,30.11,WSW,248,0.0,0.0,83,0.00,,,0.00,WeatherCatV1.15B25,2013-07-22 03:47:00,
2013-07-21 23:52:00,81.4,75.7,30.11,WSW,248,0.0,0.0,83,0.00,,,0.00,WeatherCatV1.15B25,2013-07-22 03:52:00,
2013-07-21 23:57:00,81.3,75.6,30.11,WSW,248,0.0,0.0,83,0.00,,,0.00,WeatherCatV1.15B25,2013-07-22 03:57:00,